This demonstration page uses our WeatherBlox Daily Observations layout. Learn more.

Left ArrowRight Arrow

Hourly Observations for May 16, 2018

Temp ( °F °C ) Dew Point ( °F °C ) Humidity (%) Winds ( mph kmh ) Pressure ( in mb ) Visibility ( mi km ) Precip ( " mm )
12:53 am 00:53 Cloudy 71 21.7 66 18.9 84 84 E 7 11 29.95 1014 10 16 0.00 0.00
1:53 am 01:53 Partly Cloudy 69 20.6 66 18.9 90 90 ENE 5 7 29.94 1014 9 14 0.00 0.00
2:01 am 02:01 Mostly Cloudy 70 21.1 66 18.9 87 87 ENE 3 6 29.97 1015 9 14 0.00 0.00
2:11 am 02:11 Mostly Cloudy 70 21.1 66 18.9 87 87 ENE 5 7 29.97 1015 10 16 0.00 0.00
2:24 am 02:24 Cloudy 70 21.1 65 18.3 84 84 NE 6 9 29.97 1015 9 14 0.00 0.00
2:31 am 02:31 Cloudy 70 21.1 66 18.9 87 87 NE 7 11 29.94 1014 9 14 0.00 0.00
2:53 am 02:53 Cloudy 69 20.6 66 18.9 90 90 ENE 8 13 29.93 1013 8 13 0.00 0.00
3:53 am 03:53 Mostly Cloudy with Mist and Fog 68 20 65 18.3 90 90 VRB 3 6 29.92 1013 6 10 0.09 2.29
4:53 am 04:53 Cloudy with Mist and Fog 67 19.4 65 18.3 93 93 ENE 5 7 29.91 1013 6 10 0.00 0.00
5:10 am 05:10 Cloudy with Mist and Fog 67 19.4 65 18.3 93 93 NE 5 7 29.94 1014 6 10 0.00 0.00
5:49 am 05:49 Cloudy with Heavy Rain 66 19 64 18 94 94 NW 7 11 29.94 1014 2 3 0.16 4.06
5:53 am 05:53 Cloudy with Heavy Rain 67 19.4 65 18.3 93 93 NNW 7 11 29.93 1014 2 2 0.18 4.57
5:57 am 05:57 Cloudy with Light Rain 66 18.9 64 17.8 93 93 N 7 11 29.94 1014 2 3 0.00 0.03
5:59 am 05:59 Cloudy with Nearby Thunderstorms 66 18.9 64 17.8 93 93 N 7 11 29.94 1014 3 5 0.00 0.03
6:13 am 06:13 Cloudy with Light Rain 66 18.9 64 17.8 93 93 NNE 6 9 29.94 1014 4 6 0.02 0.51
6:25 am 06:25 Cloudy with Light Rain 66 18.9 64 17.8 93 93 NE 7 11 29.94 1014 5 8 0.02 0.51
6:53 am 06:53 Cloudy with Mist and Fog 66 18.9 64 17.8 93 93 ESE 3 6 29.92 1013 3 5 0.02 0.51
7:53 am 07:53 Partly Cloudy with Mist and Fog 67 19.4 65 18.3 93 93 Calm 29.94 1014 4 6 0.00 0.00
8:32 am 08:32 Partly Cloudy 68 20 65 18.3 90 90 Calm 29.97 1015 7 11 0.00 0.00
8:53 am 08:53 Partly Cloudy 69 20.6 65 18.3 87 87 E 3 6 29.95 1014 8 13 0.00 0.00
9:23 am 09:23 Mostly Cloudy 71 21.7 67 19.4 87 87 E 5 7 29.97 1015 9 14 0.00 0.00
9:53 am 09:53 Cloudy 71 21.7 66 18.9 84 84 NE 5 7 29.95 1014 8 13 0.00 0.00
10:53 am 10:53 Cloudy 72 22.2 67 19.4 84 84 NNE 7 11 29.96 1014 9 14 0.00 0.00
11:03 am 11:03 Cloudy 71 21.7 67 19.4 87 87 N 9 15 29.97 1015 8 13 0.00 0.00
11:53 am 11:53 Cloudy 71 21.7 66 18.9 84 84 N 7 11 29.97 1015 7 11 0.00 0.00
12:39 pm 12:39 Mostly Cloudy 75 23.9 67 19.4 76 76 NNE 8 13 29.97 1015 8 13 0.00 0.00
12:53 pm 12:53 Mostly Cloudy 75 23.9 66 18.9 74 74 VRB 6 9 29.96 1015 8 13 0.00 0.00
1:53 pm 13:53 Mostly Sunny 78 25.6 67 19.4 69 69 E 5 7 29.93 1014 10 16 0.00 0.00
2:36 pm 14:36 Mostly Cloudy 78 25.6 66 18.9 67 67 E 6 9 29.94 1014 10 16 0.00 0.00
2:53 pm 14:53 Mostly Cloudy 78 25.6 66 18.9 67 67 NE 8 13 29.92 1013 10 16 0.00 0.00
3:00 pm 15:00 Mostly Cloudy 77 25 66 18.9 69 69 ENE 8 13 29.94 1014 10 16 0.00 0.00
3:37 pm 15:37 Cloudy with Nearby Thunderstorms 77 25 65 18.3 66 66 NNE 7 11 29.94 1014 10 16 0.00 0.00
3:53 pm 15:53 Cloudy 76 24.4 65 18.3 69 69 NE 9 15 29.91 1013 10 16 0.00 0.00
3:59 pm 15:59 Cloudy with Thunderstorms 76 24.4 65 18.3 69 69 ENE 8 13 29.91 1013 10 16 0.00 0.00
4:20 pm 16:20 Cloudy with Nearby Thunderstorms 74 23.3 65 18.3 74 74 E 9 15 29.94 1014 10 16 0.00 0.00
4:22 pm 16:22 Cloudy with Thunderstorms 74 23.3 65 18.3 74 74 E 8 13 29.94 1014 10 16 0.00 0.00
4:43 pm 16:43 Cloudy with Light Rain 72 22.2 66 18.9 82 82 E 5 7 29.94 1014 9 14 0.01 0.25
4:53 pm 16:53 Mostly Cloudy with Light Rain 72 22.2 66 18.9 82 82 Calm 29.91 1013 10 16 0.01 0.25
5:06 pm 17:06 Mostly Cloudy with Nearby Thunderstorms 71 21.7 68 20 90 90 Calm 29.94 1014 10 16 0.00 0.03
5:21 pm 17:21 Mostly Cloudy with Light Rain 71 21.7 67 19.4 87 87 S 5 7 29.94 1014 7 11 0.00 0.03
5:53 pm 17:53 Cloudy with Light Rain 71 21.7 69 20.6 94 94 E 3 6 29.91 1013 4 6 0.02 0.51
6:53 pm 18:53 Sunny 73 22.8 67 19.4 81 81 NE 6 9 29.90 1013 10 16 0.00 0.03
7:53 pm 19:53 Sunny 73 22.8 67 19.4 81 81 NE 3 6 29.91 1013 10 16 0.00 0.00
8:53 pm 20:53 Clear 71 21.7 66 18.9 84 84 NNE 3 6 29.92 1013 10 16 0.00 0.00
9:53 pm 21:53 Mostly Clear 70 21.1 66 18.9 87 87 Calm 29.94 1014 10 16 0.00 0.00
10:53 pm 22:53 Mostly Cloudy 68 20 65 18.3 90 90 NNW 3 6 29.95 1014 9 14 0.00 0.00
11:53 pm 23:53 Cloudy with Mist and Fog 68 20 66 18.9 93 93 Calm 29.94 1014 6 10 0.00 0.00

Powered by AerisWeather